Retour au catalogue

STARLINK-34936

ActifCommunicationsVLEO
NORAD 65898·PAYLOAD·🇺🇸 United States

Lancé Oct 7, 2025 depuis Cape Canaveral Space Force Station

Loading…

Prochains Passages (prochaines 24 heures)

TLE

FraisSource: CelesTrak SupGP

Époque: Sep 14, 2026, 21:39 UTC

1 65898C 25224S   26257.90256944  .00020325  00000+0  60036-3 0  2578
2 65898  53.1575 208.1343 0001397  97.4594 302.7379 15.34388640    17

Suivez STARLINK-34936 en temps réel avec AllMySat

Download on the App Store